Location: Unnamed
(45.3580°N, 90.2245°W)
Time: 09:14:34
(UTC-05:00)

Envisat - Pass Details

Date: 09 March 2021
Orbit: 764 x 766 km, 98.1° (Epoch: 17 April)

Event Time Altitude Azimuth Distance (km) Brightness Sun altitude
Rises 05:16:01 0° 18° (NNE) 3,243 6.6 -12.8°
Reaches altitude 10° 05:18:25 10° 25° (NNE) 2,312 5.9 -12.4°
Maximum altitude 05:23:19 47° 99° (E) 1,011 4.2 -11.5°
Drops below altitude 10° 05:28:11 10° 173° (S) 2,294 5.5 -10.6°
Sets 05:30:34 0° 179° (S) 3,215 6.2 -10.2°
